Meteo pe oră la Giurgiuleşti

Astăzi, 29 Septembrie, Marţi

Timp Temperatura Precipitaţii Vânt Presiune Umiditate
00:00 +19°C° 0 mm 4 m/s 756 mmHg 76%
01:00 +20°C° 0 mm 4 m/s 756 mmHg 76%
02:00 +20°C° 0 mm 4 m/s 755 mmHg 82%
03:00 +20°C° 0.3 mm 3 m/s 754 mmHg 85%
04:00 +20°C° 0.3 mm 3 m/s 754 mmHg 87%
05:00 +19°C° 0.3 mm 3 m/s 754 mmHg 90%
06:00 +20°C° 0.1 mm 3 m/s 753 mmHg 86%
07:00 +21°C° 0.1 mm 3 m/s 753 mmHg 83%
08:00 +21°C° 0 mm 3 m/s 753 mmHg 78%
09:00 +22°C° 0.3 mm 3 m/s 752 mmHg 72%
10:00 +23°C° 0.3 mm 4 m/s 752 mmHg 66%
11:00 +25°C° 0.3 mm 5 m/s 752 mmHg 61%
12:00 +25°C° 0.3 mm 5 m/s 752 mmHg 58%
13:00 +24°C° 0.3 mm 6 m/s 752 mmHg 56%
14:00 +23°C° 0.3 mm 6 m/s 752 mmHg 54%
15:00 +22°C° 0 mm 6 m/s 751 mmHg 56%
16:00 +21°C° 0 mm 5 m/s 751 mmHg 58%
17:00 +20°C° 0 mm 4 m/s 751 mmHg 61%
18:00 +19°C° 0 mm 3 m/s 751 mmHg 65%
19:00 +18°C° 0 mm 3 m/s 751 mmHg 69%
20:00 +17°C° 0 mm 2 m/s 751 mmHg 73%
21:00 +17°C° 0 mm 2 m/s 751 mmHg 72%
22:00 +18°C° 0 mm 1 m/s 751 mmHg 71%
23:00 +18°C° 0 mm 1 m/s 751 mmHg 71%

Mâine, 30 Septembrie, Miercuri

Timp Temperatura Precipitaţii Vânt Presiune Umiditate
00:00 +18°C° 0 mm 1 m/s 751 mmHg 70%
01:00 +17°C° 0 mm 2 m/s 751 mmHg 69%
02:00 +17°C° 0 mm 2 m/s 751 mmHg 68%
03:00 +17°C° 0 mm 2 m/s 751 mmHg 69%
04:00 +16°C° 0 mm 2 m/s 751 mmHg 70%
05:00 +16°C° 0 mm 3 m/s 751 mmHg 71%
06:00 +16°C° 0 mm 3 m/s 751 mmHg 66%
07:00 +17°C° 0 mm 3 m/s 751 mmHg 62%
08:00 +18°C° 0 mm 3 m/s 751 mmHg 57%
09:00 +19°C° 0 mm 4 m/s 751 mmHg 53%
10:00 +20°C° 0 mm 4 m/s 751 mmHg 49%
11:00 +20°C° 0 mm 4 m/s 751 mmHg 44%
12:00 +20°C° 0 mm 4 m/s 750 mmHg 44%
13:00 +21°C° 0 mm 4 m/s 750 mmHg 44%
14:00 +21°C° 0 mm 4 m/s 750 mmHg 43%
15:00 +20°C° 0 mm 3 m/s 750 mmHg 45%
16:00 +20°C° 0 mm 3 m/s 750 mmHg 46%
17:00 +19°C° 0 mm 2 m/s 750 mmHg 47%
18:00 +18°C° 0 mm 2 m/s 750 mmHg 50%
19:00 +18°C° 0 mm 2 m/s 750 mmHg 53%
20:00 +18°C° 0 mm 1 m/s 750 mmHg 55%
21:00 +16°C° 0 mm 1 m/s 750 mmHg 56%
22:00 +16°C° 0 mm 1 m/s 750 mmHg 58%
23:00 +16°C° 0 mm 1 m/s 749 mmHg 59%

Poimâine, 1 Octombrie, Joi

Timp Temperatura Precipitaţii Vânt Presiune Umiditate
00:00 +15°C° 0 mm 1 m/s 749 mmHg 60%
01:00 +15°C° 0 mm 2 m/s 749 mmHg 62%
02:00 +15°C° 0 mm 2 m/s 749 mmHg 64%
03:00 +14°C° 0 mm 2 m/s 749 mmHg 67%
04:00 +14°C° 0 mm 2 m/s 749 mmHg 70%
05:00 +13°C° 0 mm 2 m/s 749 mmHg 73%
06:00 +13°C° 0 mm 3 m/s 749 mmHg 71%
07:00 +14°C° 0 mm 3 m/s 749 mmHg 69%
08:00 +14°C° 0 mm 3 m/s 750 mmHg 67%
09:00 +17°C° 0 mm 3 m/s 750 mmHg 62%
10:00 +19°C° 0 mm 4 m/s 750 mmHg 56%
11:00 +20°C° 0 mm 4 m/s 750 mmHg 50%
12:00 +21°C° 0 mm 4 m/s 750 mmHg 47%
13:00 +21°C° 0 mm 4 m/s 750 mmHg 45%
14:00 +22°C° 0 mm 4 m/s 750 mmHg 42%
15:00 +21°C° 0.2 mm 5 m/s 750 mmHg 49%
16:00 +19°C° 0.2 mm 5 m/s 750 mmHg 56%
17:00 +17°C° 0.2 mm 6 m/s 750 mmHg 63%
18:00 +16°C° 0.1 mm 5 m/s 751 mmHg 67%
19:00 +16°C° 0.1 mm 5 m/s 751 mmHg 71%
20:00 +15°C° 0.1 mm 5 m/s 752 mmHg 75%
21:00 +15°C° 0 mm 5 m/s 752 mmHg 76%
22:00 +14°C° 0 mm 4 m/s 752 mmHg 78%
23:00 +14°C° 0 mm 4 m/s 752 mmHg 79%

2 Octombrie, Vineri

Timp Temperatura Precipitaţii Vânt Presiune Umiditate
00:00 +14°C° 0 mm 4 m/s 752 mmHg 82%
01:00 +13°C° 0 mm 4 m/s 752 mmHg 84%
02:00 +13°C° 0 mm 4 m/s 752 mmHg 87%
03:00 +13°C° 0 mm 4 m/s 752 mmHg 87%
04:00 +12°C° 0 mm 3 m/s 753 mmHg 88%
05:00 +12°C° 0 mm 3 m/s 753 mmHg 89%
06:00 +13°C° 0 mm 4 m/s 753 mmHg 85%
07:00 +14°C° 0 mm 4 m/s 753 mmHg 80%
08:00 +14°C° 0 mm 4 m/s 753 mmHg 76%
09:00 +17°C° 0 mm 4 m/s 754 mmHg 68%
10:00 +19°C° 0 mm 4 m/s 754 mmHg 60%
11:00 +21°C° 0 mm 5 m/s 754 mmHg 51%
12:00 +22°C° 0 mm 4 m/s 754 mmHg 47%
13:00 +22°C° 0 mm 4 m/s 754 mmHg 44%
14:00 +24°C° 0 mm 3 m/s 754 mmHg 40%
15:00 +24°C° 0 mm 3 m/s 754 mmHg 41%
16:00 +24°C° 0 mm 2 m/s 754 mmHg 43%
17:00 +23°C° 0 mm 2 m/s 754 mmHg 44%
18:00 +21°C° 0 mm 2 m/s 755 mmHg 49%
19:00 +19°C° 0 mm 2 m/s 755 mmHg 55%
20:00 +18°C° 0 mm 2 m/s 756 mmHg 60%
21:00 +18°C° 0 mm 2 m/s 756 mmHg 63%
22:00 +17°C° 0 mm 2 m/s 756 mmHg 66%
23:00 +17°C° 0 mm 2 m/s 756 mmHg 69%

3 Octombrie, Sâmbătă

Timp Temperatura Precipitaţii Vânt Presiune Umiditate
00:00 +16°C° 0 mm 2 m/s 756 mmHg 70%
01:00 +16°C° 0 mm 2 m/s 756 mmHg 72%
02:00 +16°C° 0 mm 2 m/s 756 mmHg 74%
03:00 +16°C° 0 mm 2 m/s 756 mmHg 75%
04:00 +15°C° 0 mm 1 m/s 757 mmHg 75%
05:00 +15°C° 0 mm 1 m/s 757 mmHg 75%
06:00 +16°C° 0 mm 1 m/s 757 mmHg 71%
07:00 +19°C° 0 mm 1 m/s 757 mmHg 66%
08:00 +19°C° 0 mm 2 m/s 757 mmHg 62%
09:00 +21°C° 0 mm 2 m/s 757 mmHg 55%
10:00 +24°C° 0 mm 3 m/s 757 mmHg 48%
11:00 +26°C° 0 mm 3 m/s 757 mmHg 41%
12:00 +28°C° 0 mm 3 m/s 757 mmHg 37%
13:00 +29°C° 0 mm 4 m/s 757 mmHg 33%
14:00 +30°C° 0 mm 4 m/s 756 mmHg 29%
15:00 +29°C° 0 mm 4 m/s 756 mmHg 32%
16:00 +28°C° 0 mm 4 m/s 756 mmHg 35%
17:00 +26°C° 0 mm 4 m/s 756 mmHg 39%
18:00 +25°C° 0 mm 4 m/s 756 mmHg 46%
19:00 +22°C° 0 mm 4 m/s 757 mmHg 54%
20:00 +21°C° 0 mm 5 m/s 757 mmHg 62%
21:00 +20°C° 0 mm 5 m/s 757 mmHg 64%
22:00 +20°C° 0 mm 4 m/s 757 mmHg 65%
23:00 +19°C° 0 mm 4 m/s 757 mmHg 67%

4 Octombrie, Duminică

Timp Temperatura Precipitaţii Vânt Presiune Umiditate
00:00 +19°C° 0 mm 4 m/s 757 mmHg 69%
01:00 +19°C° 0 mm 5 m/s 757 mmHg 70%
02:00 +19°C° 0 mm 5 m/s 757 mmHg 71%
03:00 +18°C° 0 mm 4 m/s 757 mmHg 74%
04:00 +18°C° 0 mm 4 m/s 757 mmHg 76%
05:00 +18°C° 0 mm 4 m/s 757 mmHg 79%
06:00 +19°C° 0 mm 4 m/s 757 mmHg 74%
07:00 +20°C° 0 mm 5 m/s 757 mmHg 70%
08:00 +21°C° 0 mm 5 m/s 758 mmHg 65%
09:00 +23°C° 0 mm 6 m/s 758 mmHg 55%
10:00 +27°C° 0 mm 6 m/s 758 mmHg 46%
11:00 +29°C° 0 mm 7 m/s 758 mmHg 36%
12:00 +29°C° 0 mm 7 m/s 758 mmHg 35%
13:00 +30°C° 0 mm 7 m/s 757 mmHg 34%
14:00 +32°C° 0 mm 7 m/s 757 mmHg 32%
15:00 +29°C° 0 mm 7 m/s 757 mmHg 37%
16:00 +28°C° 0 mm 7 m/s 757 mmHg 41%
17:00 +27°C° 0 mm 7 m/s 757 mmHg 45%
18:00 +24°C° 0 mm 7 m/s 757 mmHg 55%
19:00 +23°C° 0 mm 6 m/s 757 mmHg 66%
20:00 +21°C° 0 mm 6 m/s 757 mmHg 76%
21:00 +21°C° 0 mm 5 m/s 757 mmHg 79%
22:00 +20°C° 0 mm 5 m/s 758 mmHg 82%
23:00 +20°C° 0 mm 4 m/s 758 mmHg 85%
Arată mai mult

We Need Your Consent

Meteoprog and our Service Providers may store and access personal data such as cookies, device identifiers or other similar technologies on your device and process such data to personalise content and ads, as well as provide social media features and to analyse the traffic.

  • Store and/or access information on your device

    Cookies, device identifiers or other information can be stored or accessed on your device for the purposes indicated above.

  • Personalised ads and content, ad and content measurement, audience insights, and products development

    Ads and content can be personalised based on a profile. More data can be added to better personalise ads and content. Ad and content performance can be measured. Insights about the audience who saw the ads and content can be derived. Such data can be used to develop or improve user’s experience, systems and software.

By clicking ‘I Agree’ you will allow the use of indicated cookies, device identifiers, web beacons or other similar technologies. Your settings can be changed in the browser on your device.

For certain purposes, legitimate interests may be relied on, rather than consent. You can read more about this in our Privacy and Cookie Policy.